Regional Weather Roundup
Issued by NWS

Home | Current Version | Previous Version | Text Only | Print | Product List | Glossary Off
Versions: 1 2 3 4 5 6 7 8 9 10 11 12 13 14 15 16 17 18 19 20 21 22 23 24 25 26 27 28 29 30 31 32 33 34 35 36 37 38 39 40 41 42 43 44 45 46 47 48 49 50

000
ASUS43 KDTX 011910
RWRMI
MICHIGAN HOURLY REGIONAL WEATHER ROUNDUP
NATIONAL WEATHER SERVICE DETROIT/PONTIAC MI
200 PM EST SUN MAR 01 2015

NOTE: "FAIR" INDICATES FEW OR NO CLOUDS BELOW 12,000 FEET WITH NO
SIGNIFICANT WEATHER AND/OR OBSTRUCTION TO VISIBILITY.

MIZ047>049-052>055-059>063-066>070-074>076-081>083-012000-
SOUTHEAST LOWER MICHIGAN

CITY           SKY/WX    TMP DP  RH WIND       PRES   REMARKS
ADRIAN         LGT SNOW  22  18  85 CALM      30.28F FOG
ALMA           PTSUNNY   23  16  75 S10       30.27F WCI  12
ANN ARBOR      LGT SNOW  22  17  81 W6        30.27F WCI  14
BAD AXE        PTSUNNY   22  13  69 SW9       30.27S WCI  11
CARO           PTSUNNY   24  14  65 W7        30.26F WCI  16
DETROIT CITY   LGT SNOW  24  18  77 SW8       30.28F WCI  15
DETROIT        LGT SNOW  23  19  85 SW7       30.30F VSB 1   WCI  15
FLINT          PTSUNNY   24  13  62 W8        30.27F WCI  15
GROSSE ILE     LGT SNOW  23  19  86 W5        30.28F VSB 1   WCI  17
HILLSDALE      LGT SNOW  23  18  83 W5        30.25F VSB 1   WCI  17
HOWELL         CLOUDY    23  13  65 W3        30.25F

CITY           SKY/WX    TMP DP  RH WIND       PRES   REMARKS
JACKSON        LGT SNOW  21  15  78 W3        30.26F
LAMBERTVILLE   LGT SNOW  23  18  80 W3        30.30F
LANSING        PTSUNNY   24  14  65 W6        30.27F WCI  17
LAPEER         FAIR      24  12  60 W7        30.25F WCI  16
MASON          PTSUNNY   24  14  66 W6        30.27F WCI  16
MONROE         LGT SNOW  21  18  86 W7        30.28F VSB 1   WCI  13
MT. CLEMENS    CLOUDY    23  17  78 SE6       30.25F HAZE    WCI  15
PONTIAC        CLOUDY    24  13  62 W6        30.24F WCI  17
PORT HOPE        N/A     21  11  65 VRB6      30.25F WCI  13
PORT HURON     CLOUDY    25  14  63 CALM      30.27F
TRI CITIES     PTSUNNY   24  14  65 SW10      30.27F WCI  14
TROY           CLOUDY    27  16  61 SW5       30.29F WCI  22
SAGINAW HB     PTSUNNY   27  18  69 SW9       30.27F WCI  17
$$
MIZ043>046-050>051-056>058-064>065-071>073-077>080-012000-
SOUTHWEST LOWER MICHIGAN

CITY           SKY/WX    TMP DP  RH WIND       PRES   REMARKS
BATTLE CREEK   LGT SNOW  23  16  74 SW7       30.27F WCI  15
BENTON HARBOR  CLOUDY    22  18  85 W6        30.31F WCI  14
BIG RAPIDS     LGT SNOW  23  16  74 W12       30.23F WCI  12
COLDWATER      LGT SNOW  23  18  80 W3        30.28F
FREMONT        LGT SNOW  23  17  79 SW10      30.26F WCI  12
HOLLAND        CLOUDY    25  18  74 SW12      30.30F WCI  14
GRAND RAPIDS   PTSUNNY   24  15  68 W12       30.28F WCI  13
IONIA          FAIR      25  17  73 SW9       30.27F WCI  15
KALAMAZOO      LGT SNOW  22  16  78 CALM      30.29F
LUDINGTON      PTSUNNY   25  16  68 SW10      30.26F WCI  15
MARSHALL       LGT SNOW  22  16  77 W5        30.27F WCI  16
MOUNT PLEASANT FLURRIES  24  15  68 SW6       30.25F WCI  17
MUSKEGON       LGT SNOW  23  19  85 SW10      30.29F FOG     WCI  12
SOUTH HAVEN    CLOUDY    25  18  75 W7        30.30F WCI  17
$$
MIZ016>042-012000-
NORTHERN LOWER MICHIGAN

CITY           SKY/WX    TMP DP  RH WIND       PRES   REMARKS
ALPENA         PTSUNNY   27  11  51 W12G21    30.18F WCI  17
BEAVER ISLAND  CLOUDY    23  15  72 SW16G25   30.18F WCI   9
BELLAIRE       PTSUNNY   26  13  57 SW10      30.21F WCI  17
CADILLAC       LGT SNOW  21  15  76 SW10      30.18F WCI  10
CHARLEVOIX     PTSUNNY   23  14  68 SW14      30.22F WCI  11
FRANKFORT      CLOUDY    23  17  76 SW13G18   30.23F WCI  11
GAYLORD        CLOUDY    21  12  68 W13       30.14F WCI   9
GRAYLING       CLOUDY    26  13  59 W10       30.17F WCI  16
HARBOR SPRINGS MOSUNNY   23  12  64 SW13G18   30.19F WCI  11
HOUGHTON LAKE  CLOUDY    23  12  62 W12       30.19F WCI  12
MANISTEE       CLOUDY    23  10  58 SW10      30.25F WCI  12
OSCODA         MOSUNNY   25  12  59 SW9       30.21F WCI  15
PELLSTON         N/A     23  10  57 SW12      30.18F WCI  12
ROGERS CITY    PTSUNNY   27  15  61 SW9       30.18F WCI  18
TRAVERSE CITY  CLOUDY    25  14  63 SW10G20   30.20F WCI  15
$$
MIZ007>008-015-012000-
EASTERN UPPER MICHIGAN

CITY           SKY/WX    TMP DP  RH WIND       PRES   REMARKS
KINROSS        MOSUNNY   27  12  54 SW12G21   30.14F WCI  16
MACKINAC ISLAN SUNNY     22  13  70 W16G22    30.17F WCI   8
NEWBERRY       CLOUDY    22  13  69 S14G22    30.12F WCI   9
S. S. MARIE    MOSUNNY   24   9  52 SW14      30.13F WCI  12
MUNISING         N/A     28  10  46 S8        30.09F WCI  20
$$
MIZ004>006-011>014-085-012000-
CENTRAL UPPER MICHIGAN

CITY           SKY/WX    TMP DP  RH WIND       PRES   REMARKS
MANISTIQUE     PTSUNNY   22  13  66 S10       30.14F WCI  11
ESCANABA       CLOUDY    21  16  79 S14G20    30.15F WCI   8
MENOMINEE      PTSUNNY   27  14  59 W8        30.16F WCI  18
SAWYER-GWINN   CLOUDY    23  12  63 SW15G23   30.05F WCI  10
$$
MIZ001>003-009>011-084-012000-
WESTERN UPPER MICHIGAN

CITY           SKY/WX    TMP DP  RH WIND       PRES   REMARKS
IRON MOUNTAIN  CLOUDY    25  13  60 W12G18    30.08F WCI  14
HOUGHTON       LGT SNOW  20  12  71 W12       30.04F WCI   8
COPPER HARBOR    N/A     23  11  60 VRB7G16   30.06F WCI  15
IRONWOOD       CLOUDY    21  12  68 SW15G22   30.06F WCI   8
$$

ABBREVIATIONS USED IN REMARKS
   TC - TEMPERATURE IN CELSIUS
  WCI - WIND CHILL INDEX
   HX - HEAT INDEX
  VSB - VISIBILITY



USA.gov is the U.S. government's official web portal to all federal, state and local government web resources and services.